Location: Overspoor
(51.4747°N, 5.6641°E)
Time: 19:00:50
(UTC+02:00)

N. Korean satellite - Visible Passes

Search period start: 23 October 2018 00:00
Search period end: 01 November 2018 23:00
Orbit: 459 x 510 km, 97.2° (Epoch: 22 October)

Date Brightness Start Highest point End Pass type
(mag) Time Alt. Az. Time Alt. Az. Time Alt. Az.
23 Oct 9.0 07:29:25 10° NNE 07:32:40 29° E 07:35:50 10° SSE visible
23 Oct 8.8 19:43:32 10° SSW 19:46:52 30° W 19:50:14 10° NNW visible
24 Oct 10.0 07:05:37 10° NE 07:08:02 17° E 07:10:24 10° SE visible
24 Oct 7.5 19:18:39 10° S 19:22:20 56° W 19:26:03 10° NNW visible
25 Oct 6.6 18:54:09 10° SSE 18:57:53 79° ENE 19:01:39 10° N visible
25 Oct 10.4 20:30:43 10° WSW 20:31:52 11° W 20:33:00 10° WNW visible
26 Oct 9.7 20:04:25 10° SW 20:07:10 19° W 20:09:56 10° NW visible
27 Oct 9.2 07:25:13 10° NE 07:28:20 26° E 07:31:21 10° SSE visible
27 Oct 8.6 19:39:09 10° SSW 19:42:34 33° W 19:46:00 10° NNW visible
28 Oct 10.0 06:01:32 10° NE 06:03:40 15° E 06:05:46 10° SE visible
28 Oct 7.3 18:14:20 10° S 18:18:02 62° W 18:21:45 10° NNW visible
29 Oct 6.6 17:49:52 10° SSE 17:53:36 71° ENE 17:57:19 10° N visible
29 Oct 10.3 19:25:56 10° WSW 19:27:30 12° W 19:29:03 10° WNW visible
30 Oct 8.0 06:45:05 10° NNE 06:48:32 43° E 06:51:54 10° S visible
30 Oct 9.5 18:59:56 10° SW 19:02:49 21° W 19:05:42 10° NW visible
31 Oct 9.3 06:21:00 10° NE 06:23:56 23° E 06:26:50 10° SSE visible
31 Oct 8.4 18:34:44 10° SSW 18:38:13 36° W 18:41:42 10° NNW visible
01 Nov 10.1 05:57:26 10° ENE 05:59:16 13° E 06:01:03 10° ESE visible
01 Nov 7.0 18:09:59 10° S 18:13:41 69° WSW 18:17:24 10° NNW visible
